Dewpoint
55 45 44 40 30 23 19 22 23 21 21 28 32 37 41 47 38 40 61 62 61 62 68 70 71 72 72 72 73 73 73 73 73 73 73 73 73 73 72 72 71 70 68 68 67 67 68 70 70
40 41 40 32 24 12 19 21 21 21 35 45 42 42 39 46 52 56 59 64 62 62 67 67 71 72 72 72 72 72 73 73 73 73 73 73 73 72 72 71 71 70 68 67 67 66 67 68 69
43 39 32 25 22 12 18 21 22 20 30 28 33 44 45 51 57 55 64 65 64 63 66 68 71 71 72 72 72 72 72 72 72 72 72 72 72 71 71 71 71 70 68 67 67 66 66 67 68
35 34 31 21 18 25 24 24 22 19 23 20 34 36 52 60 58 62 65 64 65 62 65 70 70 71 72 72 72 72 72 71 71 71 72 72 72 71 71 71 70 69 68 67 66 65 65 65 66
35 29 19 16 21 25 26 24 25 20 24 26 31 34 44 59 64 66 65 65 66 64 66 71 70 71 71 72 72 72 71 71 71 71 72 72 72 71 71 70 70 70 68 67 65 63 63 62 62
28 26 15 7 16 23 25 27 26 24 24 32 30 33 44 59 62 65 65 65 66 66 67 70 71 71 71 71 71 71 71 71 71 71 71 71 71 71 70 70 70 70 68 66 64 62 61 60 62
29 23 13 12 13 22 25 28 27 26 24 25 30 29 41 52 60 65 64 66 67 68 68 69 71 71 71 70 70 69 70 70 70 70 71 71 70 70 70 70 70 69 67 65 63 61 58 58 65
28 25 17 14 10 14 25 26 28 27 27 30 32 29 34 43 63 65 65 65 68 69 69 70 70 70 71 71 69 69 69 69 70 70 70 70 70 69 69 69 69 69 67 65 62 59 56 55 60
28 22 15 13 16 12 23 26 28 30 28 29 30 32 40 52 62 64 65 66 67 67 69 70 70 70 70 68 70 70 70 69 69 70 69 68 67 68 68 67 68 68 67 65 63 60 57 53 53
21 18 15 16 18 15 22 26 28 30 29 30 31 35 46 49 58 58 58 61 64 66 68 70 70 70 70 68 70 70 69 68 68 68 69 68 68 68 66 67 67 67 66 66 63 61 58 55 45
21 16 16 19 18 22 21 25 28 28 28 31 31 35 37 44 47 52 50 50 59 63 65 68 70 70 70 68 69 69 69 69 69 70 69 69 69 68 67 68 66 66 66 64 62 61 59 56 50
24 22 17 19 19 23 23 25 29 29 30 34 34 35 37 41 43 45 50 46 55 61 64 67 69 70 70 68 68 68 67 69 70 70 71 69 69 69 68 68 67 67 65 65 65 63 63 62 58
30 21 23 25 22 23 25 28 26 29 29 32 34 36 38 37 39 42 44 46 50 60 64 67 69 69 69 69 68 68 68 68 69 70 70 70 68 68 68 67 67 66 66 65 65 64 63 63 62
27 28 25 28 29 29 32 29 31 31 30 34 35 35 37 38 39 39 42 45 50 59 62 68 68 69 68 68 68 68 68 68 69 70 70 69 69 68 67 68 67 66 66 64 64 64 63 62 63
32 29 29 32 34 31 32 30 28 30 30 32 32 32 32 36 37 39 40 43 50 55 61 67 69 69 69 69 68 68 67 68 68 69 69 69 69 68 68 66 67 65 66 66 65 64 64 63 62
33 31 25 23 25 32 34 22 21 25 30 32 31 31 34 37 41 42 43 44 47 54 59 66 67 68 68 69 67 67 67 67 67 67 68 68 68 68 68 67 67 67 66 66 64 63 63 62 61
32 25 24 23 25 26 31 22 21 24 30 29 32 32 35 39 42 45 48 48 48 53 61 65 68 67 68 68 67 68 68 67 66 66 66 67 67 67 67 67 67 67 66 64 63 62 62 60 59
24 26 28 24 24 30 26 27 24 30 30 32 31 33 36 39 41 46 51 54 55 53 61 65 66 67 68 67 67 67 67 67 67 68 68 68 68 68 67 68 67 66 65 65 64 62 62 61 61
27 25 25 24 25 30 30 26 25 28 29 32 32 33 35 39 42 48 54 58 58 60 62 64 65 66 67 67 66 67 66 67 67 68 67 66 66 66 66 64 62 61 58 57 57 57 58 57 59
34 31 28 25 26 32 29 26 25 26 27 30 31 32 33 38 43 48 55 57 59 60 62 64 65 66 67 66 65 64 64 62 60 56 56 56 55 56 53 55 53 53 51 52 52 52 49 47 50
34 31 28 26 28 32 32 28 26 25 26 29 31 32 31 35 42 47 54 57 59 61 63 64 65 64 61 61 57 55 54 51 51 50 50 52 52 53 53 52 51 51 50 47 49 49 49 46 46
30 29 29 28 30 28 25 19 19 16 16 21 28 32 31 35 40 45 53 57 59 61 63 63 60 55 53 52 49 48 43 44 45 47 46 45 48 46 45 47 46 47 45 46 46 42 46 45 42
28 29 27 30 31 30 27 24 23 21 19 21 30 33 35 38 41 46 52 56 58 58 58 56 51 47 48 47 50 47 46 44 43 43 43 45 44 43 42 44 45 46 44 45 47 47 46 45 44
31 31 30 30 30 28 26 23 20 16 17 22 25 27 35 37 42 46 50 54 54 54 52 50 47 45 46 46 45 45 45 41 36 37 39 38 39 40 42 43 45 46 45 45 45 46 47 47 46
31 31 27 26 27 26 21 21 23 17 20 20 23 29 34 39 43 46 45 45 47 49 48 46 43 43 43 43 41 41 41 40 37 37 38 39 37 38 39 42 44 43 44 44 45 46 46 46 46
26 30 27 23 20 20 21 19 17 19 22 25 24 28 34 40 43 45 44 43 43 46 45 43 40 39 39 39 39 39 39 36 37 38 38 39 38 39 42 44 44 44 45 45 46 45 45 47 47
26 28 31 27 25 24 19 20 22 21 22 28 30 33 37 40 43 44 44 42 43 44 44 43 38 36 37 38 40 39 40 38 37 39 41 39 41 39 42 44 45 45 45 45 45 44 44 46 48
28 28 31 33 30 26 22 18 17 18 21 27 31 34 37 39 42 44 43 43 43 43 43 42 39 35 36 37 38 37 38 39 41 41 41 42 43 43 44 44 44 44 43 43 44 45 45 46 46
28 28 31 33 32 30 26 26 30 27 25 31 33 34 38 39 42 44 43 43 42 41 40 40 37 35 36 37 38 39 39 41 42 41 41 42 44 43 42 41 41 40 40 41 41 42 42 42 43
29 30 32 34 35 35 33 32 32 32 30 29 32 33 37 39 40 43 43 42 40 40 38 37 37 35 36 35 38 41 42 41 41 41 42 43 42 42 41 40 39 39 39 40 40 40 40 40 40
Lifted_Index
9 8 8 7 5 4 4 4 5 4 4 4 3 2 0 -1 -1 -1 -3 -3 -2 -2 -3 -3 -3 -3 -3 -3 -4 -4 -5 -6 -6 -6 -6 -6 -6 -6 -5 -5 -4 -4 -3 -3 -2 -2 -3 -3 -4
9 8 8 7 5 4 4 5 5 5 4 3 2 1 -0 -1 -2 -2 -3 -3 -2 -2 -3 -3 -3 -3 -3 -3 -4 -4 -5 -5 -5 -6 -6 -6 -5 -5 -5 -5 -4 -4 -3 -3 -2 -2 -2 -3 -3
9 8 8 7 5 4 5 5 5 5 5 4 3 1 -1 -3 -3 -4 -4 -4 -3 -3 -3 -3 -3 -3 -3 -3 -3 -4 -4 -4 -5 -5 -5 -5 -5 -5 -5 -4 -4 -4 -3 -3 -2 -2 -1 -2 -2
8 8 7 6 6 5 6 6 6 6 6 5 4 1 -1 -4 -4 -5 -5 -4 -4 -3 -3 -3 -3 -3 -3 -3 -3 -3 -3 -3 -4 -4 -4 -5 -5 -4 -4 -4 -4 -3 -3 -2 -1 -1 -0 -0 -0
8 8 7 6 6 6 6 6 6 6 6 5 4 2 -1 -4 -5 -5 -5 -4 -4 -3 -3 -4 -3 -3 -3 -4 -4 -3 -3 -3 -3 -4 -4 -4 -4 -4 -3 -3 -3 -3 -2 -1 -0 1 1 1 1
8 7 6 5 6 6 7 6 6 6 5 5 4 3 -0 -3 -5 -5 -5 -4 -4 -4 -4 -4 -4 -3 -3 -4 -4 -3 -3 -3 -3 -4 -4 -4 -4 -3 -3 -3 -3 -2 -2 -0 1 2 3 3 2
8 7 6 6 6 6 6 6 6 6 5 5 4 3 1 -2 -4 -5 -5 -4 -4 -4 -4 -4 -4 -3 -3 -4 -3 -3 -3 -3 -3 -3 -4 -4 -3 -3 -2 -2 -2 -2 -1 1 2 3 4 4 3
8 7 6 6 6 6 6 6 6 5 5 5 5 4 2 -0 -3 -4 -4 -4 -4 -4 -4 -4 -4 -4 -4 -4 -3 -3 -2 -3 -3 -3 -3 -3 -3 -2 -2 -2 -1 -1 -0 1 3 4 5 6 5
8 7 6 6 6 6 6 6 6 5 5 5 5 4 3 0 -3 -4 -4 -4 -4 -4 -4 -4 -4 -4 -4 -4 -4 -3 -3 -3 -3 -3 -3 -3 -3 -2 -2 -1 -1 -0 1 2 3 4 5 6 7
8 7 7 7 7 7 7 6 6 5 5 5 5 4 3 1 -1 -2 -3 -3 -4 -4 -4 -4 -4 -3 -4 -4 -4 -3 -3 -3 -3 -3 -3 -3 -3 -3 -2 -2 -1 0 1 1 2 3 4 5 6
8 7 7 8 7 7 7 6 5 5 5 5 4 4 3 2 1 -1 -1 -2 -3 -4 -4 -4 -4 -3 -4 -4 -4 -4 -3 -3 -4 -4 -4 -3 -3 -3 -3 -2 -1 -0 0 0 1 2 3 4 4
8 8 8 8 8 7 7 6 6 5 5 4 4 4 4 3 2 1 0 -0 -2 -3 -4 -3 -4 -4 -3 -3 -3 -3 -3 -3 -4 -4 -4 -3 -3 -3 -3 -2 -2 -1 -1 -1 -0 0 1 2 2
7 7 8 8 8 7 7 6 6 5 5 4 4 4 4 4 3 2 2 1 -1 -3 -3 -4 -4 -4 -3 -3 -3 -3 -3 -3 -3 -4 -4 -3 -3 -3 -2 -2 -2 -2 -1 -1 -1 -1 -0 0 1
7 7 7 7 7 7 6 6 6 5 5 5 4 4 4 4 4 3 3 2 0 -2 -3 -4 -4 -4 -4 -3 -3 -3 -3 -3 -3 -3 -3 -3 -2 -2 -2 -2 -2 -2 -1 -1 -1 -0 -0 -0 -0
7 7 7 6 6 6 6 6 5 5 5 5 4 4 4 4 4 4 4 3 1 -1 -3 -4 -4 -4 -4 -3 -3 -3 -3 -2 -3 -3 -3 -2 -2 -2 -2 -2 -2 -2 -1 -1 -1 -0 -0 0 0
6 6 6 6 6 6 5 5 5 5 5 5 5 5 5 4 4 4 4 3 2 -0 -2 -3 -4 -4 -4 -4 -3 -3 -2 -2 -2 -2 -2 -2 -2 -2 -2 -2 -2 -2 -1 -1 -1 -0 -0 0 0
6 6 6 6 6 5 5 5 5 5 5 5 5 5 5 4 4 4 3 3 2 0 -2 -3 -3 -3 -3 -3 -3 -3 -3 -2 -2 -2 -2 -2 -2 -2 -2 -2 -2 -1 -1 -1 -0 0 0 0 0
5 5 5 5 5 5 5 5 5 5 5 5 5 5 4 4 4 4 3 2 1 0 -2 -3 -3 -3 -3 -3 -3 -3 -3 -3 -2 -2 -2 -2 -2 -2 -1 -1 -1 -0 -0 0 1 2 2 2 2
4 5 5 5 4 5 5 5 5 5 5 5 5 5 4 4 4 4 2 1 -0 -1 -2 -2 -2 -2 -3 -3 -3 -3 -3 -2 -2 -2 -1 -1 0 0 1 1 2 2 2 3 4 4 4 4 4
4 4 4 4 4 4 4 5 5 5 5 5 5 5 4 4 4 3 2 0 -1 -1 -2 -2 -2 -2 -3 -4 -4 -3 -3 -2 -1 0 2 3 4 4 5 5 5 6 6 6 7 7 7 8 8
4 4 4 4 3 3 3 4 4 5 6 6 5 5 5 5 4 3 2 0 -1 -1 -2 -2 -2 -2 -3 -4 -4 -3 -3 -2 0 3 6 7 7 8 8 8 8 9 9 9 10 10 10 10 10
4 4 3 3 2 3 3 3 4 5 6 6 6 5 5 5 4 3 1 0 -0 -1 -1 -1 -2 -2 -3 -4 -3 -3 -1 1 4 7 9 9 10 10 10 11 11 11 11 12 12 12 12 12 12
4 3 3 2 2 2 3 3 4 5 6 6 6 5 5 5 4 3 2 1 0 0 0 -0 -1 -2 -2 -1 -0 1 3 6 8 10 11 11 12 12 12 12 12 13 13 13 13 13 13 12 12
3 3 2 2 2 2 3 3 4 6 7 7 6 5 5 5 4 3 3 2 2 1 1 0 0 0 1 3 5 7 8 10 11 12 13 13 13 13 13 13 13 14 14 14 14 14 13 13 12
3 3 2 1 1 2 3 3 4 6 7 7 6 6 5 4 4 4 4 4 3 2 2 2 3 4 6 8 10 11 12 12 13 13 14 14 14 14 14 14 14 14 15 15 15 14 14 13 12
3 3 2 1 1 1 2 3 4 6 7 7 6 6 5 5 4 4 4 4 4 4 4 5 6 8 10 12 12 13 13 13 14 14 14 14 14 14 15 15 15 15 15 15 15 14 14 13 12
3 2 2 1 0 1 2 3 5 6 6 6 6 5 5 4 4 4 4 4 5 5 6 8 9 11 12 13 13 13 13 13 14 14 14 14 15 15 15 15 15 16 16 15 15 15 14 14 13
2 2 1 1 0 1 2 3 5 6 6 6 5 5 4 4 3 3 3 4 5 6 7 9 10 12 13 13 13 13 13 13 13 14 14 15 15 16 16 16 16 16 16 16 16 15 15 15 14
2 2 1 0 0 1 1 3 5 5 5 5 5 4 3 3 3 3 3 4 5 6 8 10 11 12 13 13 13 13 13 13 14 14 15 16 16 17 17 17 17 16 16 16 16 16 16 16 15
2 1 0 -0 0 1 2 3 5 5 5 4 4 3 3 3 3 3 3 4 5 6 8 10 11 13 13 14 13 13 13 14 14 15 16 16 17 17 18 17 16 16 16 16 16 16 16 16 15